TimeCST,TemperatureF,Dew PointF,Humidity,Sea Level PressureIn,VisibilityMPH,Wind Direction,Wind SpeedMPH,Gust SpeedMPH,PrecipitationIn,Events,Conditions,WindDirDegrees,DateUTC
12:53 AM,32.0,25.0,75,30.02,10.0,ESE,4.6,-,N/A,,Clear,120,2013-02-17 06:53:00
1:53 AM,30.9,24.1,76,30.02,10.0,ESE,4.6,-,N/A,,Clear,120,2013-02-17 07:53:00
2:53 AM,30.0,23.0,75,30.01,10.0,SSE,3.5,-,N/A,,Clear,160,2013-02-17 08:53:00
3:53 AM,28.0,23.0,81,29.99,10.0,SE,3.5,-,N/A,,Clear,140,2013-02-17 09:53:00
4:53 AM,28.0,24.1,85,29.98,10.0,SE,3.5,-,N/A,,Clear,140,2013-02-17 10:53:00
5:53 AM,27.0,24.1,89,29.99,9.0,SSE,4.6,-,N/A,,Clear,160,2013-02-17 11:53:00
6:53 AM,27.0,24.1,89,29.98,10.0,Calm,Calm,-,N/A,,Clear,0,2013-02-17 12:53:00
7:53 AM,28.0,26.1,92,29.96,10.0,SSE,3.5,-,N/A,,Partly Cloudy,150,2013-02-17 13:53:00
8:53 AM,36.0,30.9,82,29.96,10.0,South,9.2,-,N/A,,Partly Cloudy,190,2013-02-17 14:53:00
9:53 AM,44.1,30.9,60,29.94,10.0,South,10.4,-,N/A,,Partly Cloudy,170,2013-02-17 15:53:00
10:53 AM,52.0,32.0,47,29.92,10.0,South,12.7,-,N/A,,Partly Cloudy,190,2013-02-17 16:53:00
11:53 AM,57.9,32.0,37,29.88,10.0,South,12.7,-,N/A,,Scattered Clouds,170,2013-02-17 17:53:00
12:53 PM,61.0,30.0,31,29.84,10.0,South,15.0,-,N/A,,Mostly Cloudy,180,2013-02-17 18:53:00
1:53 PM,66.0,28.9,25,29.78,10.0,SSE,15.0,-,N/A,,Mostly Cloudy,160,2013-02-17 19:53:00
2:53 PM,66.0,28.9,25,29.75,10.0,South,19.6,-,N/A,,Mostly Cloudy,170,2013-02-17 20:53:00
3:53 PM,66.9,30.0,25,29.72,10.0,South,20.7,28.8,N/A,,Mostly Cloudy,170,2013-02-17 21:53:00
4:53 PM,69.1,24.1,18,29.69,10.0,South,23.0,33.4,N/A,,Mostly Cloudy,190,2013-02-17 22:53:00
5:53 PM,64.0,25.0,23,29.68,10.0,South,20.7,31.1,N/A,,Scattered Clouds,180,2013-02-17 23:53:00
6:53 PM,59.0,27.0,29,29.68,10.0,South,15.0,-,N/A,,Scattered Clouds,180,2013-02-18 00:53:00
7:53 PM,55.9,28.0,34,29.68,10.0,South,15.0,-,N/A,,Mostly Cloudy,180,2013-02-18 01:53:00
8:53 PM,55.0,28.0,35,29.65,10.0,South,11.5,-,N/A,,Mostly Cloudy,170,2013-02-18 02:53:00
9:53 PM,55.0,28.9,37,29.63,10.0,South,19.6,-,N/A,,Mostly Cloudy,170,2013-02-18 03:53:00
11:53 PM,54.0,30.0,40,29.57,10.0,South,25.3,34.5,N/A,,Scattered Clouds,170,2013-02-18 05:53:00